TimeEDT,TemperatureF,Dew PointF,Humidity,Sea Level PressureIn,VisibilityMPH,Wind Direction,Wind SpeedMPH,Gust SpeedMPH,PrecipitationIn,Events,Conditions,WindDirDegrees,DateUTC
12:51 AM,81.0,70.0,69,30.71,10.0,Calm,Calm,-,N/A,,Partly Cloudy,0,2013-07-18 04:51:00
1:51 AM,79.9,70.0,72,30.71,10.0,Calm,Calm,-,N/A,,Scattered Clouds,0,2013-07-18 05:51:00
2:51 AM,77.0,70.9,81,30.69,10.0,Calm,Calm,-,N/A,,Clear,0,2013-07-18 06:51:00
3:51 AM,77.0,70.9,81,30.68,10.0,Calm,Calm,-,N/A,,Clear,0,2013-07-18 07:51:00
4:51 AM,75.9,70.9,84,30.69,10.0,Calm,Calm,-,N/A,,Clear,0,2013-07-18 08:51:00
5:51 AM,77.0,70.9,81,30.70,10.0,Calm,Calm,-,N/A,,Clear,0,2013-07-18 09:51:00
6:51 AM,79.0,72.0,79,30.72,10.0,Calm,Calm,-,N/A,,Clear,0,2013-07-18 10:51:00
7:51 AM,81.0,70.9,71,30.73,10.0,Calm,Calm,-,N/A,,Clear,0,2013-07-18 11:51:00
8:51 AM,83.8,72.9,69,30.73,10.0,Calm,Calm,-,N/A,,Clear,0,2013-07-18 12:51:00
9:51 AM,86.0,70.0,59,30.73,10.0,North,5.8,-,N/A,,Clear,10,2013-07-18 13:51:00
10:51 AM,88.9,70.0,53,30.73,10.0,North,3.5,-,N/A,,Clear,360,2013-07-18 14:51:00
11:51 AM,90.0,68.9,50,30.72,10.0,NNE,5.8,-,0.00,Rain,Light Rain,20,2013-07-18 15:51:00
1:51 PM,92.8,68.9,45,30.70,10.0,SSW,5.8,-,0.00,,Clear,210,2013-07-18 17:51:00
2:51 PM,92.8,70.0,47,30.68,10.0,Calm,Calm,-,0.00,,Clear,0,2013-07-18 18:51:00
3:51 PM,90.0,72.9,57,30.66,10.0,Calm,Calm,-,0.00,,Partly Cloudy,0,2013-07-18 19:51:00
4:51 PM,90.0,72.0,55,30.67,10.0,Variable,5.8,-,N/A,,Mostly Cloudy,0,2013-07-18 20:51:00
5:51 PM,84.9,70.0,61,30.66,10.0,SE,6.9,-,N/A,,Mostly Cloudy,130,2013-07-18 21:51:00
6:51 PM,83.8,68.9,61,30.67,10.0,East,10.4,-,N/A,,Scattered Clouds,90,2013-07-18 22:51:00
7:51 PM,81.0,68.9,67,30.70,10.0,NNE,4.6,-,N/A,,Scattered Clouds,20,2013-07-18 23:51:00
8:51 PM,79.9,70.9,74,30.69,10.0,Calm,Calm,-,N/A,,Clear,0,2013-07-19 00:51:00
9:51 PM,77.9,70.9,79,30.71,10.0,Calm,Calm,-,N/A,,Clear,0,2013-07-19 01:51:00
10:51 PM,77.0,70.9,81,30.69,10.0,Calm,Calm,-,N/A,,Clear,0,2013-07-19 02:51:00
11:51 PM,75.9,72.0,87,30.67,10.0,Calm,Calm,-,N/A,,Clear,0,2013-07-19 03:51:00